Flag for Sweden Weather past 2 weeks in Malmö, Sweden

Now
75 °F

Sunny.


Feels Like: 77 °F
Forecast: 64 / 83 °F
Wind: 2 mph from East

Location: Malmo / Sturup

Current Time: Jul 4, 2015 at 9:30:49 PM

Latest Report: Jul 4, 2015 at 8:50 PM


Visibility: 10 mi

Pressure: 30.09 "Hg

Humidity: 69%

Dew point: 64 °F

Location of MalmöLocation

Historic Weather in Malmö — Graph

°F

Malmö temperature yesterday

Maximum temperature yesterday: 79 °F (at 4:20 PM)
Minimum temperature yesterday: 59 °F (at 3:20 AM)
Average temperature yesterday: 69 °F

Past Weeks' High & Low Weather Summary

 TemperatureHumidityPressure
High84 °F (Jul 4, 12:50 PM)100% (Jun 21, 4:50 AM)30.39 "Hg (Jun 21, 4:50 AM)
Low43 °F (Jun 22, 2:20 AM)38% (Jul 2, 2:20 PM)29.62 "Hg (Jun 23, 12:50 AM)
Average60 °F78%30.03 "Hg
* Reported Jun 19 8:20 PM — Jul 4 8:20 PM, Malmö, Weather by CustomWeather, © 2015

Note: Actual official high and low records may vary slightly from our data, if they occured in-between our weather recording intervals... More about our weather records

Advertising

Malmö weather history for previous 24 hours

 ConditionsComfort  
Time TempWeatherWind HumidityBarometerVisibility
8:20 PM
Sat, Jul 4
77 °FSunny.3 mph61%30.09 "Hg10 mi
7:50 PM77 °FSunny.5 mph61%30.09 "Hg10 mi
7:20 PM79 °FSunny.5 mph54%30.09 "Hg10 mi
6:50 PM79 °FSunny.3 mph58%30.09 "Hg10 mi
6:20 PM81 °FSunny.5 mph51%30.12 "Hg10 mi
5:50 PM81 °FSunny.5 mph51%30.12 "Hg10 mi
5:20 PM81 °FSunny.3 mph54%30.12 "Hg10 mi
4:50 PM81 °FSunny.5 mph54%30.12 "Hg10 mi
4:20 PM81 °FSunny.5 mph51%30.15 "Hg10 mi
3:50 PM81 °FSunny.8 mph51%30.15 "Hg10 mi
3:20 PM81 °FSunny.8 mph48%30.15 "Hg10 mi
2:50 PM82 °FSunny.8 mph51%30.15 "Hg10 mi
2:20 PM82 °FSunny.8 mph51%30.15 "Hg10 mi
1:50 PM84 °FSunny.7 mph45%30.15 "Hg10 mi
1:20 PM84 °FSunny.7 mph43%30.15 "Hg10 mi
12:50 PM84 °FSunny.6 mph45%30.15 "Hg10 mi
12:20 PM82 °FPassing clouds.5 mph48%30.15 "HgN/A
11:50 AM82 °FPassing clouds.3 mph48%30.18 "HgN/A
11:20 AM82 °FPassing clouds.5 mph48%30.18 "HgN/A
10:50 AM81 °FSunny.5 mph51%30.18 "Hg10 mi
10:20 AM79 °FPassing clouds.5 mph54%30.18 "HgN/A
9:50 AM77 °FSunny.5 mph54%30.18 "Hg10 mi
9:20 AM75 °FSunny.6 mph61%30.18 "Hg10 mi
8:50 AM73 °FSunny.5 mph61%30.18 "Hg10 mi
8:20 AM72 °FSunny.5 mph65%30.18 "Hg10 mi
7:50 AM70 °FSunny.3 mph69%30.18 "Hg10 mi
7:20 AM68 °FSunny.1 mph78%30.18 "Hg10 mi
6:50 AM66 °FSunny.2 mph83%30.18 "Hg10 mi
6:20 AM63 °FSunny.No wind88%30.18 "Hg10 mi
5:50 AM59 °FSunny.2 mph88%30.21 "Hg10 mi
5:20 AM61 °FClear.2 mph83%30.21 "Hg10 mi
4:50 AM61 °FClear.5 mph83%30.21 "Hg10 mi
4:20 AM63 °FClear.5 mph77%30.21 "Hg10 mi
3:50 AM63 °FClear.6 mph77%30.21 "Hg10 mi
3:20 AM61 °FClear.6 mph83%30.21 "Hg10 mi
2:50 AM61 °FClear.6 mph83%30.24 "Hg10 mi
2:20 AM61 °FClear.5 mph83%30.24 "Hg10 mi
1:50 AM61 °FClear.5 mph83%30.24 "Hg10 mi
1:20 AM61 °FClear.5 mph83%30.24 "Hg10 mi
12:50 AM61 °FClear.5 mph83%30.24 "Hg10 mi
12:20 AM61 °FClear.3 mph88%30.24 "Hg10 mi
11:50 PM
Fri, Jul 3
61 °FClear.3 mph88%30.27 "Hg10 mi
11:20 PM63 °FClear.3 mph83%30.27 "Hg10 mi
10:50 PM64 °FSunny.5 mph78%30.27 "Hg10 mi
10:20 PM66 °FSunny.6 mph73%30.27 "Hg10 mi
9:50 PM66 °FSunny.6 mph73%30.27 "Hg10 mi
9:20 PM72 °FSunny.6 mph57%30.27 "Hg10 mi
Weather by CustomWeather, © 2015

See weather overviewHow to use our weather pages